SJX711 RCTP-VVTS

Flight info

Callsign SJX711
Flight time N/A
Altitude 40000
Route CHALI T5 PARPA A577 KABAM N892 MIGUG/K0904F400 N892 MESOX Q15 CRA W15 VETOM
Aircraft A359/H-SDE2E3GHIJ1J3J4J5LM1ORWXY/LB1D1

Departure

Time 2026-05-05 13:50
Airport Taiwan Taoyuan International Airport (RCTP)

Arrival

Time N/A
Airport Tan Son Nhat International Airport (VVTS)
Time Latitude Longitude Altitude Speed Heading
2026-05-05 13:26 25.07993 121.23151 119 ft 0 kts 140°
2026-05-05 13:38 25.08002 121.23142 119 ft 2 kts 140°
2026-05-05 13:39 25.08014 121.23132 119 ft 2 kts 140°
2026-05-05 13:39 25.08025 121.23121 119 ft 2 kts 140°
2026-05-05 13:39 25.08037 121.23110 119 ft 2 kts 141°
2026-05-05 13:39 25.08050 121.23102 119 ft 2 kts 160°
2026-05-05 13:40 25.08064 121.23098 119 ft 2 kts 176°
2026-05-05 13:40 25.08079 121.23099 119 ft 2 kts 192°
2026-05-05 13:40 25.08093 121.23103 119 ft 2 kts 207°
2026-05-05 13:40 25.08106 121.23113 119 ft 2 kts 223°
2026-05-05 13:41 25.08111 121.23118 119 ft 1 kts 229°
2026-05-05 13:41 25.08111 121.23119 119 ft 0 kts 229°
2026-05-05 13:43 25.08111 121.23118 119 ft 0 kts 229°
2026-05-05 13:43 25.08101 121.23106 119 ft 3 kts 226°
2026-05-05 13:43 25.08085 121.23087 119 ft 0 kts 225°
2026-05-05 13:45 25.08084 121.23086 119 ft 1 kts 226°
2026-05-05 13:45 25.08069 121.23069 119 ft 6 kts 228°
2026-05-05 13:45 25.08027 121.23017 119 ft 11 kts 230°
2026-05-05 13:45 25.08022 121.22934 119 ft 12 kts 307°
2026-05-05 13:46 25.08042 121.22882 119 ft 6 kts 255°
2026-05-05 13:46 25.08012 121.22831 119 ft 9 kts 231°
2026-05-05 13:46 25.07960 121.22762 119 ft 13 kts 229°
2026-05-05 13:46 25.07887 121.22669 119 ft 18 kts 229°
2026-05-05 13:47 25.07796 121.22553 119 ft 22 kts 228°
2026-05-05 13:47 25.07692 121.22420 119 ft 23 kts 229°
2026-05-05 13:47 25.07579 121.22279 119 ft 25 kts 229°
2026-05-05 13:47 25.07462 121.22130 119 ft 26 kts 227°
2026-05-05 13:48 25.07356 121.21995 119 ft 20 kts 228°
2026-05-05 13:48 25.07289 121.21909 119 ft 11 kts 235°
2026-05-05 13:48 25.07293 121.21825 119 ft 12 kts 304°
2026-05-05 13:48 25.07353 121.21757 119 ft 10 kts 319°
2026-05-05 13:49 25.07419 121.21768 119 ft 11 kts 45°
2026-05-05 13:49 25.07481 121.21839 119 ft 16 kts 47°
2026-05-05 13:49 25.07721 121.22152 119 ft 91 kts 48°
2026-05-05 13:49 25.08296 121.22880 139 ft 152 kts 50°
2026-05-05 13:50 25.09003 121.23735 749 ft 156 kts 49°
2026-05-05 13:50 25.09718 121.24634 1444 ft 159 kts 51°
2026-05-05 13:50 25.10425 121.25549 2084 ft 161 kts 51°
2026-05-05 13:50 25.11166 121.26511 2554 ft 170 kts 51°
2026-05-05 13:51 25.11955 121.27538 2964 ft 184 kts 51°
2026-05-05 13:51 25.12816 121.28655 3390 ft 199 kts 50°
2026-05-05 13:51 25.13981 121.29539 3777 ft 220 kts 19°
2026-05-05 13:51 25.15583 121.29525 4153 ft 245 kts 341°
2026-05-05 13:52 25.16995 121.28410 4652 ft 265 kts 314°
2026-05-05 13:52 25.18250 121.26831 5280 ft 279 kts 310°
2026-05-05 13:52 25.19487 121.25185 6085 ft 285 kts 310°
2026-05-05 13:52 25.20776 121.23490 6977 ft 289 kts 311°
2026-05-05 13:53 25.22074 121.21820 7847 ft 293 kts 312°
2026-05-05 13:53 25.23419 121.20113 8723 ft 298 kts 312°
2026-05-05 13:53 25.24777 121.18401 9585 ft 302 kts 313°
2026-05-05 13:53 25.26174 121.16642 10425 ft 308 kts 311°
2026-05-05 13:54 25.27298 121.14622 10955 ft 324 kts 289°
2026-05-05 13:54 25.27575 121.12101 11415 ft 339 kts 261°
2026-05-05 13:54 25.26778 121.09607 11863 ft 351 kts 234°
2026-05-05 13:54 25.25162 121.07610 12316 ft 361 kts 219°
2026-05-05 13:55 25.23222 121.05774 12880 ft 372 kts 217°
2026-05-05 13:55 25.21226 121.03947 13635 ft 377 kts 217°
2026-05-05 13:55 25.19197 121.02089 14447 ft 380 kts 217°
2026-05-05 13:55 25.17171 121.00226 15224 ft 382 kts 217°
2026-05-05 13:56 25.15145 120.98357 15967 ft 385 kts 217°
2026-05-05 13:56 25.13092 120.96457 16698 ft 388 kts 217°
2026-05-05 13:56 25.11025 120.94542 17408 ft 391 kts 217°
2026-05-05 13:56 25.08927 120.92598 18093 ft 395 kts 217°
2026-05-05 13:57 25.06821 120.90646 18749 ft 399 kts 218°
2026-05-05 13:57 25.04712 120.88689 19382 ft 402 kts 218°
2026-05-05 13:57 25.02578 120.86711 20004 ft 406 kts 218°
2026-05-05 13:57 25.00411 120.84702 20620 ft 410 kts 218°
2026-05-05 13:58 24.98234 120.82685 21219 ft 413 kts 218°
2026-05-05 13:58 24.96026 120.80634 21810 ft 417 kts 218°
2026-05-05 13:58 24.93800 120.78566 22389 ft 420 kts 218°
2026-05-05 13:58 24.91564 120.76492 22959 ft 424 kts 218°
2026-05-05 13:59 24.87045 120.72317 24061 ft 430 kts 218°
2026-05-05 13:59 24.84730 120.70187 24590 ft 433 kts 218°
2026-05-05 14:00 24.80118 120.65939 25582 ft 438 kts 218°
2026-05-05 14:00 24.77785 120.63789 26056 ft 441 kts 218°
2026-05-05 14:00 24.75433 120.61621 26516 ft 444 kts 218°
2026-05-05 14:00 24.73052 120.59427 26961 ft 446 kts 218°
2026-05-05 14:01 24.70678 120.57240 27388 ft 449 kts 218°
2026-05-05 14:01 24.68286 120.55039 27802 ft 451 kts 218°
2026-05-05 14:01 24.65901 120.52843 28199 ft 454 kts 218°
2026-05-05 14:01 24.63479 120.50614 28589 ft 456 kts 218°
2026-05-05 14:02 24.61043 120.48375 28966 ft 458 kts 218°
2026-05-05 14:02 24.58599 120.46129 29330 ft 460 kts 218°
2026-05-05 14:02 24.56132 120.43863 29683 ft 463 kts 218°
2026-05-05 14:02 24.53675 120.41608 30021 ft 465 kts 218°
2026-05-05 14:03 24.51188 120.39325 30352 ft 467 kts 218°
2026-05-05 14:03 24.48706 120.37048 30666 ft 469 kts 218°
2026-05-05 14:03 24.46215 120.34766 30970 ft 471 kts 218°
2026-05-05 14:03 24.43706 120.32456 31267 ft 472 kts 218°
2026-05-05 14:04 24.41201 120.30148 31594 ft 473 kts 218°
2026-05-05 14:04 24.38691 120.27839 32019 ft 472 kts 218°
2026-05-05 14:04 24.36194 120.25549 32458 ft 469 kts 218°
2026-05-05 14:04 24.33695 120.23263 32878 ft 468 kts 218°
2026-05-05 14:05 24.31231 120.21013 33271 ft 466 kts 218°
2026-05-05 14:05 24.28724 120.18726 33657 ft 465 kts 218°
2026-05-05 14:05 24.26257 120.16476 34027 ft 464 kts 218°
2026-05-05 14:05 24.23790 120.14237 34386 ft 463 kts 217°
2026-05-05 14:06 24.21191 120.12186 34731 ft 461 kts 211°
2026-05-05 14:06 24.18440 120.10445 35059 ft 459 kts 206°
2026-05-05 14:06 24.15549 120.09014 35375 ft 457 kts 200°
2026-05-05 14:06 24.12525 120.07899 35682 ft 456 kts 194°
2026-05-05 14:07 24.09450 120.07124 35978 ft 455 kts 189°
2026-05-05 14:07 24.06319 120.06683 36264 ft 454 kts 184°
2026-05-05 14:07 24.03180 120.06541 36535 ft 454 kts 181°
2026-05-05 14:07 24.00041 120.06488 36791 ft 454 kts 180°
2026-05-05 14:08 23.96913 120.06451 37029 ft 454 kts 180°
2026-05-05 14:08 23.93763 120.06413 37261 ft 454 kts 180°
2026-05-05 14:08 23.90600 120.06373 37488 ft 454 kts 180°
2026-05-05 14:08 23.87454 120.06331 37715 ft 454 kts 180°
2026-05-05 14:09 23.84331 120.06287 37935 ft 454 kts 180°
2026-05-05 14:09 23.81149 120.06241 38151 ft 454 kts 180°
2026-05-05 14:09 23.78010 120.06195 38337 ft 455 kts 180°
2026-05-05 14:09 23.74888 120.06150 38497 ft 456 kts 180°
2026-05-05 14:10 23.71691 120.06103 38651 ft 457 kts 180°
2026-05-05 14:10 23.68553 120.06057 38798 ft 458 kts 180°
2026-05-05 14:10 23.65360 120.06010 38946 ft 458 kts 180°
2026-05-05 14:10 23.62165 120.05962 39089 ft 459 kts 180°
2026-05-05 14:11 23.59015 120.05915 39226 ft 460 kts 180°
2026-05-05 14:11 23.55828 120.05868 39359 ft 461 kts 180°
2026-05-05 14:11 23.52610 120.05821 39489 ft 462 kts 180°
2026-05-05 14:11 23.49397 120.05772 39614 ft 463 kts 180°
2026-05-05 14:12 23.46217 120.05725 39734 ft 463 kts 180°
2026-05-05 14:12 23.43000 120.05678 39852 ft 464 kts 180°
2026-05-05 14:12 23.39799 120.05630 39963 ft 465 kts 180°
2026-05-05 14:12 23.36573 120.05582 39975 ft 466 kts 180°
2026-05-05 14:13 23.30102 120.05486 39983 ft 466 kts 180°
2026-05-05 14:13 23.23637 120.05391 39984 ft 466 kts 180°
2026-05-05 14:14 23.17169 120.05296 39985 ft 466 kts 180°
2026-05-05 14:14 23.10724 120.05201 39985 ft 466 kts 180°
2026-05-05 14:15 23.04280 120.05106 39985 ft 466 kts 180°
2026-05-05 14:15 22.97787 120.05008 39984 ft 467 kts 180°
2026-05-05 14:16 22.91290 120.04911 39984 ft 470 kts 180°
2026-05-05 14:16 22.84755 120.04816 39974 ft 472 kts 180°
2026-05-05 14:17 22.78233 120.04723 39952 ft 473 kts 180°
2026-05-05 14:17 22.71657 120.04628 39940 ft 473 kts 180°
2026-05-05 14:18 22.65132 120.04533 39934 ft 473 kts 180°
2026-05-05 14:18 22.58564 120.04438 39932 ft 473 kts 180°
2026-05-05 14:19 22.52021 120.04343 39932 ft 473 kts 180°
2026-05-05 14:19 22.45487 120.04248 39932 ft 473 kts 180°
2026-05-05 14:20 22.38891 120.04153 39932 ft 473 kts 180°
2026-05-05 14:20 22.32340 120.04058 39932 ft 473 kts 180°
2026-05-05 14:21 22.25824 120.03965 39932 ft 473 kts 180°
2026-05-05 14:21 22.19266 120.03872 39932 ft 473 kts 180°
2026-05-05 14:22 22.12695 120.03780 39932 ft 473 kts 180°
2026-05-05 14:22 22.06167 120.03671 39932 ft 473 kts 181°
2026-05-05 14:23 21.99605 120.03085 39931 ft 474 kts 187°
2026-05-05 14:23 21.93097 120.02095 39932 ft 474 kts 187°
2026-05-05 14:24 21.86593 120.01105 39932 ft 474 kts 187°
2026-05-05 14:24 21.80076 120.00124 39932 ft 474 kts 187°
2026-05-05 14:25 21.73586 119.99144 39932 ft 474 kts 187°
2026-05-05 14:25 21.67072 119.98146 39932 ft 474 kts 187°
2026-05-05 14:26 21.60566 119.97152 39932 ft 474 kts 187°
2026-05-05 14:26 21.54073 119.96165 39932 ft 474 kts 187°
2026-05-05 14:27 21.47583 119.95180 39932 ft 474 kts 187°
2026-05-05 14:27 21.41089 119.94197 39932 ft 474 kts 187°
2026-05-05 14:28 21.34569 119.93211 39932 ft 474 kts 187°
2026-05-05 14:28 21.28081 119.92231 39932 ft 474 kts 187°
2026-05-05 14:29 21.21563 119.91249 39932 ft 474 kts 187°
2026-05-05 14:29 21.15057 119.90269 39932 ft 474 kts 187°
2026-05-05 14:30 21.08605 119.89146 39932 ft 474 kts 192°
2026-05-05 14:30 21.02369 119.86910 39933 ft 475 kts 202°
2026-05-05 14:31 20.96609 119.83439 39932 ft 479 kts 212°
2026-05-05 14:31 20.91529 119.78848 39933 ft 483 kts 221°
2026-05-05 14:32 20.86804 119.73767 39932 ft 483 kts 222°
2026-05-05 14:32 20.82086 119.68673 39932 ft 483 kts 222°
2026-05-05 14:33 20.77364 119.63584 39932 ft 483 kts 222°
2026-05-05 14:33 20.72617 119.58478 39932 ft 483 kts 222°
2026-05-05 14:34 20.67896 119.53406 39932 ft 483 kts 222°
2026-05-05 14:34 20.65305 119.50623 39932 ft 483 kts 222°
2026-05-05 14:35 20.60542 119.45515 39932 ft 483 kts 222°
2026-05-05 14:35 20.55836 119.40470 39932 ft 483 kts 222°
2026-05-05 14:36 20.51087 119.35387 39932 ft 483 kts 222°
2026-05-05 14:36 20.46393 119.30341 39931 ft 483 kts 222°
2026-05-05 14:37 20.41660 119.25258 39928 ft 483 kts 222°
2026-05-05 14:37 20.36950 119.20219 39920 ft 483 kts 222°
2026-05-05 14:38 20.32189 119.15138 39913 ft 483 kts 222°
2026-05-05 14:38 20.27470 119.10107 39910 ft 483 kts 222°
2026-05-05 14:39 20.22734 119.05064 39907 ft 483 kts 222°
2026-05-05 14:39 20.18006 119.00035 39902 ft 483 kts 222°
2026-05-05 14:40 20.13259 118.94990 39892 ft 481 kts 222°
2026-05-05 14:40 20.08560 118.89999 39884 ft 480 kts 222°
2026-05-05 14:41 20.03842 118.84995 39880 ft 479 kts 222°
2026-05-05 14:41 19.99157 118.80029 39878 ft 477 kts 222°
2026-05-05 14:42 19.94474 118.75069 39877 ft 477 kts 222°
2026-05-05 14:42 19.89774 118.70096 39878 ft 477 kts 222°
2026-05-05 14:43 19.85097 118.65179 39877 ft 477 kts 222°
2026-05-05 14:43 19.80391 118.60230 39877 ft 477 kts 222°
2026-05-05 14:44 19.75707 118.55295 39877 ft 477 kts 222°
2026-05-05 14:44 19.71002 118.50336 39877 ft 477 kts 222°
2026-05-05 14:45 19.66341 118.45425 39877 ft 477 kts 222°
2026-05-05 14:45 19.61622 118.40459 39877 ft 477 kts 222°
2026-05-05 14:46 19.56947 118.35543 39877 ft 477 kts 222°
2026-05-05 14:46 19.52276 118.30613 39877 ft 477 kts 222°
2026-05-05 14:47 19.47572 118.25653 39877 ft 477 kts 222°
2026-05-05 14:47 19.42892 118.20744 39877 ft 477 kts 222°
2026-05-05 14:48 19.38191 118.15826 39877 ft 477 kts 222°
2026-05-05 14:48 19.33485 118.10902 39877 ft 477 kts 222°
2026-05-05 14:49 19.28800 118.05988 39877 ft 477 kts 222°
2026-05-05 14:49 19.24093 118.01060 39877 ft 477 kts 222°
2026-05-05 14:50 19.19377 117.96134 39877 ft 477 kts 222°
2026-05-05 14:50 19.14675 117.91232 39877 ft 477 kts 222°
2026-05-05 14:51 19.09967 117.86330 39877 ft 477 kts 222°
2026-05-05 14:51 19.05276 117.81451 39877 ft 477 kts 222°
2026-05-05 14:52 19.00562 117.76540 39876 ft 478 kts 222°
2026-05-05 14:52 18.95823 117.71596 39876 ft 481 kts 222°
2026-05-05 14:53 18.91053 117.66634 39876 ft 484 kts 223°
2026-05-05 14:53 18.86261 117.61677 39877 ft 486 kts 223°
2026-05-05 14:54 18.81449 117.56708 39877 ft 486 kts 223°
2026-05-05 14:54 18.76611 117.51701 39877 ft 486 kts 223°
2026-05-05 14:55 18.71807 117.46730 39877 ft 486 kts 223°
2026-05-05 14:55 18.67001 117.41758 39877 ft 486 kts 223°
2026-05-05 14:56 18.62177 117.36771 39877 ft 486 kts 223°
2026-05-05 14:56 18.57379 117.31799 39877 ft 486 kts 223°
2026-05-05 14:57 18.52560 117.26797 39877 ft 486 kts 223°
2026-05-05 14:57 18.47770 117.21845 39877 ft 486 kts 222°
2026-05-05 14:58 18.42945 117.16870 39877 ft 486 kts 222°
2026-05-05 14:58 18.38125 117.11907 39877 ft 486 kts 222°
2026-05-05 14:59 18.33284 117.06930 39876 ft 489 kts 223°
2026-05-05 14:59 18.28441 117.01958 39876 ft 493 kts 223°
2026-05-05 15:00 18.24352 116.97761 39876 ft 495 kts 223°
2026-05-05 15:00 18.18619 116.91881 39877 ft 497 kts 224°
2026-05-05 15:01 18.13657 116.86794 39877 ft 497 kts 224°
2026-05-05 15:01 18.04367 116.77274 39881 ft 497 kts 224°
2026-05-05 15:02 17.94473 116.67162 39962 ft 497 kts 224°
2026-05-05 15:02 17.85604 116.58133 40004 ft 497 kts 224°
2026-05-05 15:03 17.80645 116.53107 40022 ft 496 kts 224°
2026-05-05 15:03 17.75723 116.48096 40032 ft 496 kts 224°
2026-05-05 15:04 17.70771 116.43050 40037 ft 496 kts 224°
2026-05-05 15:04 17.65838 116.38030 40039 ft 496 kts 224°
2026-05-05 15:05 17.58454 116.30503 40039 ft 496 kts 224°
2026-05-05 15:06 17.53532 116.25481 40039 ft 496 kts 224°
2026-05-05 15:06 17.48570 116.20438 40039 ft 496 kts 224°
2026-05-05 15:07 17.43633 116.15431 40039 ft 496 kts 224°
2026-05-05 15:07 17.38676 116.10411 40039 ft 496 kts 224°
2026-05-05 15:08 17.33748 116.05425 40039 ft 496 kts 224°
2026-05-05 15:08 17.28799 116.00421 40039 ft 496 kts 224°
2026-05-05 15:09 17.23848 115.95420 40039 ft 496 kts 224°
2026-05-05 15:09 17.18869 115.90394 40039 ft 496 kts 224°
2026-05-05 15:10 17.13943 115.85426 40040 ft 496 kts 224°
2026-05-05 15:10 17.08978 115.80425 40039 ft 497 kts 224°
2026-05-05 15:11 17.03989 115.75410 40039 ft 499 kts 225°
2026-05-05 15:11 16.99027 115.70424 40040 ft 498 kts 226°
2026-05-05 15:12 16.94054 115.65424 40040 ft 494 kts 226°
2026-05-05 15:12 16.89123 115.60459 40038 ft 493 kts 226°
2026-05-05 15:13 16.84199 115.55542 40039 ft 493 kts 226°
2026-05-05 15:13 16.79258 115.50603 40039 ft 493 kts 226°
2026-05-05 15:14 16.74330 115.45672 40040 ft 493 kts 226°
2026-05-05 15:14 16.69367 115.40702 40040 ft 493 kts 226°
2026-05-05 15:15 16.64458 115.35789 40039 ft 493 kts 226°
2026-05-05 15:15 16.59524 115.30833 40040 ft 493 kts 226°
2026-05-05 15:16 16.54578 115.25865 40040 ft 493 kts 226°
2026-05-05 15:16 16.49673 115.20957 40039 ft 493 kts 226°
2026-05-05 15:17 16.44713 115.16001 40028 ft 494 kts 226°
2026-05-05 15:17 16.39770 115.11066 39973 ft 495 kts 225°
2026-05-05 15:18 16.34808 115.06119 39936 ft 495 kts 225°
2026-05-05 15:18 16.29846 115.01179 39919 ft 495 kts 225°
2026-05-05 15:19 16.24920 114.96278 39911 ft 494 kts 224°
2026-05-05 15:19 16.19957 114.91349 39908 ft 493 kts 224°
2026-05-05 15:20 16.15025 114.86453 39909 ft 493 kts 224°
2026-05-05 15:20 16.10058 114.81520 39912 ft 493 kts 224°
2026-05-05 15:21 16.05111 114.76613 39913 ft 493 kts 224°
2026-05-05 15:21 16.00175 114.71722 39912 ft 493 kts 224°
2026-05-05 15:22 15.95228 114.66823 39910 ft 493 kts 224°
2026-05-05 15:22 15.90279 114.61924 39910 ft 493 kts 224°
2026-05-05 15:23 15.85331 114.57055 39913 ft 493 kts 224°
2026-05-05 15:23 15.80376 114.52181 39918 ft 493 kts 224°
2026-05-05 15:24 15.75413 114.47286 39923 ft 493 kts 224°
2026-05-05 15:24 15.70459 114.42398 39927 ft 493 kts 224°
2026-05-05 15:25 15.65486 114.37494 39929 ft 493 kts 224°